Anoka County, MN

9:53 AM CST on December 09, 2019 (GMT -0600)
Anoka County / Blaine Airport

Weather History for KANE - August, 2019

Change the Weather History Date:

Wednesday, August 21, 2019

  Actual Average Record
Temperature  
Mean Temperature 66 °F -  
Max Temperature 75 °F 76 °F 87 °F (2013)
Min Temperature 57 °F 57 °F 39 °F (2004)
Cooling Degree Days 1    
Growing Degree Days 16 (Base 50)    
Moisture  
Dew Point 56 °F    
Average Humidity 74    
Maximum Humidity 94    
Minimum Humidity 44    
Precipitation  
Precipitation 0.03 in - - ()
Sea Level Pressure  
Sea Level Pressure 30.04 in    
Wind  
Wind Speed 5 mph (NNW)    
Max Wind Speed 13 mph    
Max Gust Speed -    
Visibility 10 miles    
Events      
Averages and records for this station are not official NWS values.
T = Trace of Precipitation, MM = Missing Value Source: NWS Daily Summary

Daily Weather History Graph

Daily Weather History Graph

Search for Another Location

Airport or City:

Astronomy

Aug. 21, 2019 Rise Set
Actual Time 6:21 AM CDT 8:09 PM CDT
Civil Twilight 5:49 AM CDT 8:41 PM CDT
Nautical Twilight 5:11 AM CDT 9:19 PM CDT
Astronomical Twilight 4:29 AM CDT 10:01 PM CDT
Moon 11:11 PM CDT (8/21) 12:12 PM CDT (8/21)
Length of Visible Light 14h 51m
Length of Day
13h 48m
Waning Gibbous, 69% of the Moon is Illuminated
Aug 21
Waning Gibbous
Aug 23
Last Quarter
Aug 30
New
Sep 5
First Quarter
Sep 13
Full

Hourly Weather History & Observations

Time (CDT) Temp. Dew Point Humidity Pressure Visibility Wind Dir Wind Speed Gust Speed Precip Events Conditions
12:17 AM 69.8 °F 60.8 °F 73% 30.04 in 10.0 mi North 5.8 mph - N/A   Unknown
12:35 AM 68.0 °F 60.8 °F 78% 30.04 in 10.0 mi NNW 4.6 mph - 0.01 in   Unknown
12:56 AM 68.0 °F 60.8 °F 78% 30.04 in 10.0 mi NNW 5.8 mph - N/A   Unknown
1:16 AM 66.2 °F 60.8 °F 83% 30.04 in 10.0 mi North 4.6 mph - N/A   Unknown
1:38 AM 66.2 °F 59.0 °F 78% 30.05 in 10.0 mi NNW 5.8 mph - N/A   Unknown
1:56 AM 64.4 °F 59.0 °F 83% 30.05 in 10.0 mi North 4.6 mph - N/A   Unknown
2:16 AM 64.4 °F 59.0 °F 83% 30.06 in 10.0 mi NNW 3.5 mph - N/A   Unknown
2:36 AM 64.4 °F 57.2 °F 77% 30.06 in 10.0 mi NW 4.6 mph - N/A   Unknown
2:55 AM 64.4 °F 57.2 °F 77% 30.05 in 10.0 mi NW 4.6 mph - N/A   Unknown
2:59 AM 62.6 °F 57.2 °F 82% 30.05 in 10.0 mi NW 4.6 mph - N/A   Unknown
3:18 AM 62.6 °F 60.8 °F 94% 30.04 in 10.0 mi NNW 4.6 mph - 0.01 in   Unknown
3:35 AM 62.6 °F 60.8 °F 94% 30.04 in 10.0 mi NNW 4.6 mph - 0.01 in   Unknown
3:56 AM 62.6 °F 59.0 °F 88% 30.03 in 10.0 mi North 4.6 mph - N/A   Unknown
4:16 AM 60.8 °F 59.0 °F 94% 30.02 in 10.0 mi North 4.6 mph - N/A   Unknown
4:39 AM 60.8 °F 57.2 °F 88% 30.01 in 10.0 mi NNW 3.5 mph - N/A   Unknown
4:56 AM 59.0 °F 57.2 °F 94% 30.00 in 10.0 mi North 4.6 mph - N/A   Unknown
5:16 AM 59.0 °F 57.2 °F 94% 30.01 in 10.0 mi North 3.5 mph - N/A   Unknown
5:36 AM 59.0 °F 57.2 °F 94% 30.00 in 10.0 mi North 6.9 mph - N/A   Unknown
5:55 AM 59.0 °F 57.2 °F 94% 30.03 in 10.0 mi NW 4.6 mph - 0.01 in   Unknown
6:00 AM 59.0 °F 57.2 °F 94% 30.04 in 10.0 mi NW 3.5 mph - N/A   Unknown
6:17 AM 57.2 °F 55.4 °F 94% 30.05 in 10.0 mi WNW 3.5 mph - N/A   Unknown
6:35 AM 57.2 °F 55.4 °F 94% 30.06 in 10.0 mi Calm Calm - N/A   Unknown
6:50 AM 59.0 °F 57.2 °F 94% 30.06 in 10.0 mi West 4.6 mph - N/A   Clear
6:56 AM 59.0 °F 57.2 °F 94% 30.07 in 10.0 mi Calm Calm - N/A   Unknown
7:45 AM 60.8 °F 59.0 °F 94% 30.07 in 10.0 mi West 4.6 mph - N/A   Clear
8:45 AM 64.4 °F 55.4 °F 73% 30.08 in 10.0 mi West 3.5 mph - N/A   Mostly Cloudy
9:45 AM 69.8 °F 55.4 °F 60% 30.07 in 10.0 mi WNW 4.6 mph - N/A   Mostly Cloudy
10:45 AM 71.6 °F 53.6 °F 53% 30.09 in 10.0 mi West 5.8 mph - N/A   Mostly Cloudy
11:45 AM 73.4 °F 50.0 °F 44% 30.08 in 10.0 mi NNW 6.9 mph - N/A   Mostly Cloudy
12:45 PM 73.4 °F 51.8 °F 47% 30.07 in 10.0 mi NNW 10.4 mph - N/A   Mostly Cloudy
1:45 PM 75.2 °F 51.8 °F 44% 30.06 in 10.0 mi NW 9.2 mph - N/A   Mostly Cloudy
2:45 PM 75.2 °F 53.6 °F 47% 30.05 in 10.0 mi NNW 9.2 mph - N/A   Scattered Clouds
3:45 PM 75.2 °F 51.8 °F 44% 30.04 in 10.0 mi NW 9.2 mph - N/A   Scattered Clouds
4:45 PM 75.2 °F 51.8 °F 44% 30.03 in 10.0 mi NW 12.7 mph - N/A   Scattered Clouds
5:45 PM 73.4 °F 51.8 °F 47% 30.03 in 10.0 mi NW 12.7 mph - N/A   Scattered Clouds
6:45 PM 73.4 °F 51.8 °F 47% 30.01 in 10.0 mi NNW 10.4 mph - N/A   Scattered Clouds
7:45 PM 71.6 °F 51.8 °F 50% 30.01 in 10.0 mi NNW 5.8 mph - N/A   Scattered Clouds
8:45 PM 66.2 °F 51.8 °F 60% 30.02 in 10.0 mi NNW 4.6 mph - N/A   Scattered Clouds
9:45 PM - - N/A% 30.04 in 10.0 mi Calm Calm - N/A   Scattered Clouds
10:16 PM 64.4 °F 53.6 °F 68% 30.04 in 10.0 mi Calm Calm - N/A   Unknown
10:38 PM 64.4 °F 53.6 °F 68% 30.05 in 10.0 mi Calm Calm - N/A   Unknown
10:57 PM 64.4 °F 53.6 °F 68% 30.05 in 10.0 mi Calm Calm - N/A   Unknown
11:16 PM 64.4 °F 53.6 °F 68% 30.05 in 10.0 mi Calm Calm - 0.01 in   Unknown
11:36 PM 62.6 °F 53.6 °F 72% 30.06 in 10.0 mi North 4.6 mph - 0.01 in   Unknown
11:55 PM 62.6 °F 53.6 °F 72% 30.06 in 10.0 mi North 4.6 mph - 0.01 in   Unknown
11:59 PM 62.6 °F 53.6 °F 72% 30.06 in 10.0 mi North 4.6 mph - N/A   Unknown